PACCTY-2 Weather Reports


Display with metric or nautical units.
time (UTC)temp
F
wind
direction
speed
MPH
gust
MPH
rain 1hr
in
rain 24hr
in
rain mn
in
humidity
%
barometer
mb
20260508011016 55 317 11.0 14.0 0.00 0.00 0.00
20260508002508 56 347 13.0 16.0 0.00 0.00 0.00
20260508000503 56 341 11.0 15.0 0.00 0.00 0.00
20260507193910 56 337 11.0 14.0 0.00 0.00 0.00
20260507154323 53 0 9.0 11.0 0.00 0.00 0.00
20260507150816 52 355 5.0 7.0 0.00 0.00 0.00
20260507150315 52 348 6.0 7.0 0.00 0.00 0.00
20260507145814 52 4 6.0 7.0 0.00 0.00 0.00
20260507144316 52 357 6.0 10.0 0.00 0.00 0.00
20260507143309 52 19 7.0 9.0 0.00 0.00 0.00
20260507142308 51 355 6.0 8.0 0.00 0.00 0.00
20260507135301 51 28 4.0 6.0 0.00 0.00 0.00
20260507134300 51 1 4.0 8.0 0.00 0.00 0.00
20260507132756 51 9 5.0 6.0 0.00 0.00 0.00
20260507130844 51 0 0.0 0.0 0.00 0.00 0.00
20260507130752 51 0 0.0 0.0 0.00 0.00 0.00
20260507130251 51 0 0.0 0.0 0.00 0.00 0.00
20260507115738 51 18 5.0 7.0 0.00 0.00 0.00
20260507114735 52 28 3.0 5.0 0.00 0.00 0.00
20260507111730 52 37 4.0 8.0 0.00 0.00 0.00
20260507102719 52 26 6.0 8.0 0.00 0.00 0.00
20260507101717 52 35 5.0 8.0 0.00 0.00 0.00
20260507101216 53 12 6.0 8.0 0.00 0.00 0.00
20260507100214 53 23 0.0 8.0 0.00 0.00 0.00
20260507095714 53 14 1.0 8.0 0.00 0.00 0.00
20260507094712 53 29 6.0 6.0 0.00 0.00 0.00
20260507093709 53 29 0.0 6.0 0.00 0.00 0.00
20260507090704 53 0 0.0 0.0 0.00 0.00 0.00